Regional Weather Roundup
Issued by NWS

Home | Current Version | Previous Version | Text Only | Print | Product List | Glossary Off
Versions: 1 2 3 4 5 6 7 8 9 10 11 12 13 14 15 16 17 18 19 20 21 22 23 24 25 26 27 28

000
ASUS45 KBOI 241510
RWRID
WEATHER ROUNDUP FOR IDAHO
NATIONAL WEATHER SERVICE BOISE ID
900 AM MDT THU APR 24 2014

NOTE: "FAIR" INDICATES FEW OR NO CLOUDS BELOW 12000 FEET
WITH NO SIGNIFICANT WEATHER AND/OR OBSTRUCTIONS TO VISIBILITY

IDZ012-014-241600-
SOUTHWEST IDAHO


CITY           SKY/WX    TMP DP  RH WIND       PRES   REMARKS
BOISE          LGT RAIN  45  40  82 E8        29.95R
CALDWELL       CLOUDY    45  36  70 E9        29.96R
MOUNTAIN HOME  CLOUDY    44  44  99 E8        29.95S
$$

IDZ016-017-241600-
SOUTHCENTRAL IDAHO


CITY           SKY/WX    TMP DP  RH WIND       PRES   REMARKS
BURLEY         CLOUDY    48  32  53 S18       29.98R
JEROME         LGT RAIN  47  35  63 SW13      29.98R
TWIN FALLS     LGT RAIN  50  32  50 S20G25    29.97S
$$

IDZ019>023-241600-
SOUTHEAST IDAHO


CITY           SKY/WX    TMP DP  RH WIND       PRES   REMARKS
IDAHO FALLS    CLOUDY    46  26  45 S12       29.98S
POCATELLO      MOSUNNY   50  23  34 S21G30    29.97F
REXBURG        CLOUDY    43  25  49 S13       29.98S
$$

IDZ006-010-011-018-031-032-241600-
CENTRAL IDAHO MOUNTAINS


CITY           SKY/WX    TMP DP  RH WIND       PRES   REMARKS
MCCALL         LGT SNOW  33  30  88 SE7       29.88S FOG     WCI  27
HAILEY         LGT SNOW  39  30  70 SW6       29.98S WCI  35
STANLEY          N/A     32  29  88 SE10G17   29.91S WCI  24
SALMON         CLOUDY    43  34  70 N3        29.84F
CHALLIS        CLOUDY    45  23  42 S12       29.87F
$$

IDZ002-004-006-007-026-241600-
NORTHERN IDAHO


CITY           SKY/WX    TMP DP  RH WIND       PRES   REMARKS
LEWISTON       LGT RAIN  45  41  86 N7        29.81S
LOWELL           N/A     41  40  96 N3        29.90R
COEUR D`ALENE  CLOUDY    41  37  87 SE9       29.77S
MULLAN PASS    SNOW      30  29  96 VRB5      29.74R VSB 1/4 WCI  25
$$



USA.gov is the U.S. government's official web portal to all federal, state and local government web resources and services.